| time (UTC) | temp F | wind direction | speed MPH | gust MPH | rain 1hr in | rain 24hr in | rain mn in | humidity % | barometer mb |
| 20260505152803 | 56 | 325 | 1.0 | 8.0 | 0.00 | 0.16 | 0.13 | 76 | 1009.4 |
| 20260505152305 | 56 | 167 | 2.0 | 3.0 | 0.00 | 0.16 | 0.13 | 77 | 1009.4 |
| 20260505151803 | 54 | 33 | 3.0 | 8.0 | 0.00 | 0.16 | 0.13 | 76 | 1009.4 |
| 20260505151303 | 55 | 334 | 2.0 | 8.0 | 0.00 | 0.16 | 0.13 | 77 | 1009.4 |
| 20260505150803 | 54 | 145 | 2.0 | 7.0 | 0.00 | 0.16 | 0.13 | 78 | 1009.7 |
| 20260505150302 | 54 | 116 | 2.0 | 3.0 | 0.00 | 0.16 | 0.13 | 78 | 1009.7 |
| 20260505140304 | 52 | 210 | 1.0 | 7.0 | 0.00 | 0.16 | 0.13 | 91 | 1009.3 |
| 20260505130303 | 50 | 133 | 2.0 | 2.0 | 0.03 | 0.16 | 0.13 | 88 | 1010.5 |
| 20260505124303 | 51 | 327 | 5.0 | 12.0 | 0.10 | 0.16 | 0.13 | 88 | 1010.3 |
| 20260505123803 | 51 | 303 | 5.0 | 12.0 | 0.10 | 0.16 | 0.13 | 88 | 1010.3 |
| 20260505123303 | 51 | 214 | 5.0 | 5.0 | 0.10 | 0.16 | 0.13 | 88 | 1010.3 |
| 20260505122803 | 51 | 325 | 6.0 | 9.0 | 0.10 | 0.16 | 0.13 | 88 | 1010.4 |
| 20260505122305 | 51 | 31 | 6.0 | 12.0 | 0.10 | 0.16 | 0.13 | 88 | 1010.4 |
| 20260505121802 | 51 | 347 | 6.0 | 8.0 | 0.10 | 0.16 | 0.13 | 88 | 1010.4 |
| 20260505121303 | 52 | 347 | 6.0 | 14.0 | 0.10 | 0.16 | 0.13 | 87 | 1010.4 |
| 20260505120803 | 52 | 33 | 5.0 | 8.0 | 0.06 | 0.13 | 0.10 | 85 | 1009.9 |
| 20260505115803 | 53 | 190 | 3.0 | 6.0 | 0.06 | 0.13 | 0.10 | 85 | 1009.9 |
| 20260505115305 | 53 | 5 | 2.0 | 5.0 | 0.06 | 0.13 | 0.10 | 82 | 1009.9 |
| 20260505114803 | 54 | 145 | 2.0 | 7.0 | 0.00 | 0.06 | 0.03 | 81 | 1008.6 |
| 20260505113803 | 55 | 213 | 3.0 | 7.0 | 0.00 | 0.06 | 0.03 | 80 | 1008.6 |
| 20260505113304 | 55 | 123 | 3.0 | 7.0 | 0.00 | 0.06 | 0.03 | 80 | 1008.6 |
| 20260505112803 | 55 | 10 | 3.0 | 7.0 | 0.00 | 0.06 | 0.03 | 79 | 1007.7 |
| 20260505112305 | 55 | 347 | 3.0 | 9.0 | 0.00 | 0.06 | 0.03 | 79 | 1007.7 |
| 20260505110804 | 56 | 303 | 5.0 | 21.0 | 0.00 | 0.06 | 0.03 | 81 | 1008.1 |
| 20260505110303 | 56 | 13 | 5.0 | 6.0 | 0.00 | 0.06 | 0.03 | 82 | 1008.1 |
| 20260505101304 | 59 | 339 | 5.0 | 7.0 | 0.03 | 0.06 | 0.03 | 87 | 1007.2 |
| 20260505100803 | 60 | 347 | 6.0 | 10.0 | 0.03 | 0.06 | 0.03 | 87 | 1006.7 |
| 20260505100304 | 60 | 324 | 5.0 | 6.0 | 0.03 | 0.06 | 0.03 | 85 | 1006.7 |
| 20260505095803 | 60 | 347 | 5.0 | 6.0 | 0.03 | 0.06 | 0.03 | 84 | 1006.7 |
| 20260505095304 | 61 | 311 | 3.0 | 12.0 | 0.00 | 0.03 | 0.00 | 83 | 1006.7 |
| 20260505094303 | 62 | 349 | 2.0 | 9.0 | 0.00 | 0.03 | 0.00 | 83 | 1005.7 |
| 20260505093803 | 62 | 347 | 0.0 | 2.0 | 0.00 | 0.03 | 0.00 | 81 | 1005.7 |
| 20260505093303 | 62 | 289 | 0.0 | 0.0 | 0.00 | 0.03 | 0.00 | 80 | 1005.7 |
| 20260505092803 | 62 | 303 | 0.0 | 0.0 | 0.00 | 0.03 | 0.00 | 79 | 1005.7 |
| 20260505092305 | 62 | 336 | 0.0 | 0.0 | 0.00 | 0.03 | 0.00 | 78 | 1005.7 |
| 20260505091806 | 62 | 303 | 0.0 | 0.0 | 0.00 | 0.03 | 0.00 | 77 | 1005.7 |
| 20260505090303 | 63 | 262 | 0.0 | 0.0 | 0.00 | 0.03 | 0.00 | 74 | 1005.4 |
| 20260505085803 | 63 | 303 | 0.0 | 0.0 | 0.00 | 0.03 | 0.00 | 73 | 1005.4 |
| 20260505084804 | 63 | 145 | 0.0 | 0.0 | 0.00 | 0.03 | 0.00 | 72 | 1005.7 |
| 20260505084303 | 63 | 155 | 0.0 | 0.0 | 0.00 | 0.03 | 0.00 | 72 | 1005.7 |
| 20260505083303 | 63 | 207 | 0.0 | 0.0 | 0.00 | 0.03 | 0.00 | 70 | 1005.7 |
| 20260505082304 | 64 | 167 | 0.0 | 0.0 | 0.00 | 0.03 | 0.00 | 65 | 1005.7 |
| 20260505081803 | 65 | 303 | 0.0 | 0.0 | 0.00 | 0.03 | 0.00 | 64 | 1005.7 |
| 20260505080804 | 66 | 167 | 0.0 | 0.0 | 0.00 | 0.03 | 0.00 | 59 | 1006.1 |
| 20260505080304 | 67 | 317 | 0.0 | 0.0 | 0.00 | 0.03 | 0.00 | 56 | 1006.1 |
| 20260505075803 | 67 | 257 | 0.0 | 0.0 | 0.00 | 0.03 | 0.00 | 56 | 1006.1 |
| 20260505075304 | 67 | 327 | 0.0 | 3.0 | 0.00 | 0.03 | 0.00 | 56 | 1006.1 |
| 20260505074804 | 67 | 347 | 0.0 | 0.0 | 0.00 | 0.03 | 0.00 | 56 | 1006.0 |
| 20260505074303 | 67 | 303 | 0.0 | 0.0 | 0.00 | 0.03 | 0.00 | 55 | 1006.0 |
| 20260505073804 | 68 | 347 | 1.0 | 0.0 | 0.00 | 0.03 | 0.00 | 55 | 1006.0 |
| 20260505073303 | 68 | 267 | 1.0 | 5.0 | 0.00 | 0.03 | 0.00 | 56 | 1006.0 |
| 20260505072803 | 68 | 257 | 1.0 | 5.0 | 0.00 | 0.03 | 0.00 | 56 | 1006.5 |
| 20260505072305 | 68 | 90 | 1.0 | 2.0 | 0.00 | 0.03 | 0.00 | 56 | 1006.5 |
| 20260505071303 | 69 | 347 | 5.0 | 6.0 | 0.00 | 0.03 | 0.00 | 57 | 1006.5 |
| 20260505070804 | 69 | 347 | 6.0 | 13.0 | 0.00 | 0.03 | 0.00 | 56 | 1005.4 |
| 20260505070303 | 70 | 167 | 6.0 | 14.0 | 0.00 | 0.03 | 0.00 | 58 | 1005.4 |
| 20260505065804 | 70 | 55 | 5.0 | 10.0 | 0.00 | 0.03 | 0.00 | 59 | 1005.4 |
| 20260505065304 | 69 | 347 | 5.0 | 10.0 | 0.00 | 0.03 | 0.00 | 59 | 1005.4 |
| 20260505064803 | 69 | 145 | 5.0 | 10.0 | 0.00 | 0.03 | 0.00 | 59 | 1004.6 |
| 20260505064303 | 69 | 145 | 6.0 | 12.0 | 0.00 | 0.03 | 0.00 | 59 | 1004.6 |
| 20260505063804 | 70 | 145 | 5.0 | 6.0 | 0.00 | 0.03 | 0.00 | 59 | 1004.6 |
| 20260505062804 | 70 | 145 | 5.0 | 9.0 | 0.00 | 0.03 | 0.00 | 58 | 1005.0 |
| 20260505062304 | 70 | 163 | 5.0 | 9.0 | 0.00 | 0.03 | 0.00 | 58 | 1005.0 |
| 20260505061804 | 70 | 145 | 5.0 | 7.0 | 0.00 | 0.03 | 0.00 | 58 | 1005.0 |
| 20260505061304 | 70 | 145 | 6.0 | 6.0 | 0.00 | 0.03 | 0.00 | 58 | 1005.0 |
| 20260505060804 | 70 | 303 | 5.0 | 7.0 | 0.00 | 0.03 | 0.00 | 58 | 1004.5 |
| 20260505060303 | 70 | 137 | 5.0 | 9.0 | 0.00 | 0.03 | 0.00 | 57 | 1004.5 |
| 20260505055804 | 70 | 145 | 5.0 | 6.0 | 0.00 | 0.03 | 0.00 | 57 | 1004.5 |
| 20260505054304 | 71 | 155 | 6.0 | 9.0 | 0.00 | 0.03 | 0.00 | 56 | 1004.1 |
| 20260505053804 | 71 | 145 | 7.0 | 9.0 | 0.00 | 0.03 | 0.00 | 56 | 1004.1 |
| 20260505053304 | 71 | 145 | 8.0 | 8.0 | 0.00 | 0.03 | 0.00 | 56 | 1004.1 |
| 20260505052804 | 71 | 167 | 7.0 | 12.0 | 0.00 | 0.03 | 0.00 | 56 | 1003.8 |
| 20260505052304 | 71 | 166 | 8.0 | 10.0 | 0.00 | 0.03 | 0.00 | 56 | 1003.8 |
| 20260505051803 | 71 | 213 | 8.0 | 15.0 | 0.00 | 0.03 | 0.00 | 56 | 1003.8 |
| 20260505051304 | 71 | 145 | 8.0 | 15.0 | 0.00 | 0.03 | 0.00 | 56 | 1003.8 |
| 20260505050822 | 71 | 145 | 8.0 | 12.0 | 0.00 | 0.03 | 0.00 | 55 | 1003.9 |
| 20260505050304 | 71 | 156 | 7.0 | 12.0 | 0.00 | 0.03 | 0.00 | 56 | 1003.9 |
| 20260505040803 | 72 | 145 | 6.0 | 10.0 | 0.00 | 0.03 | 0.03 | 54 | 1003.7 |
| 20260505040304 | 72 | 179 | 6.0 | 10.0 | 0.00 | 0.03 | 0.03 | 55 | 1003.7 |
| 20260505035803 | 72 | 145 | 6.0 | 15.0 | 0.00 | 0.03 | 0.03 | 54 | 1003.7 |
| 20260505034804 | 72 | 280 | 6.0 | 9.0 | 0.00 | 0.03 | 0.03 | 54 | 1003.9 |
| 20260505034303 | 72 | 145 | 5.0 | 9.0 | 0.00 | 0.03 | 0.03 | 54 | 1003.9 |
| 20260505033803 | 72 | 145 | 5.0 | 6.0 | 0.00 | 0.03 | 0.03 | 54 | 1003.9 |
| 20260505033303 | 73 | 145 | 5.0 | 8.0 | 0.00 | 0.03 | 0.03 | 54 | 1003.9 |
| 20260505032804 | 73 | 145 | 5.0 | 8.0 | 0.00 | 0.03 | 0.03 | 53 | 1003.9 |
| 20260505032304 | 73 | 101 | 5.0 | 8.0 | 0.00 | 0.03 | 0.03 | 52 | 1003.9 |
| 20260505031803 | 73 | 145 | 7.0 | 8.0 | 0.00 | 0.03 | 0.03 | 52 | 1003.9 |
| 20260505031304 | 73 | 145 | 7.0 | 12.0 | 0.00 | 0.03 | 0.03 | 52 | 1003.9 |
| 20260505030304 | 74 | 145 | 5.0 | 8.0 | 0.00 | 0.03 | 0.03 | 51 | 1003.6 |
| 20260505025803 | 74 | 145 | 5.0 | 7.0 | 0.00 | 0.03 | 0.03 | 51 | 1003.6 |
| 20260505024804 | 74 | 145 | 5.0 | 5.0 | 0.00 | 0.03 | 0.03 | 51 | 1003.0 |
| 20260505024304 | 74 | 230 | 5.0 | 7.0 | 0.00 | 0.03 | 0.03 | 51 | 1003.0 |
| 20260505023803 | 74 | 257 | 3.0 | 8.0 | 0.00 | 0.03 | 0.03 | 51 | 1003.0 |
| 20260505023304 | 74 | 141 | 3.0 | 6.0 | 0.00 | 0.03 | 0.03 | 50 | 1003.0 |
| 20260505022803 | 74 | 167 | 5.0 | 8.0 | 0.00 | 0.03 | 0.03 | 50 | 1002.7 |
| 20260505012803 | 75 | 167 | 6.0 | 8.0 | 0.00 | 0.03 | 0.03 | 49 | 1003.8 |
| 20260505012304 | 75 | 145 | 5.0 | 12.0 | 0.00 | 0.03 | 0.03 | 50 | 1003.8 |
| 20260505011805 | 75 | 123 | 4.0 | 9.0 | 0.00 | 0.03 | 0.03 | 50 | 1003.8 |
| 20260505010804 | 75 | 167 | 2.0 | 2.0 | 0.00 | 0.03 | 0.03 | 50 | 1003.2 |
| 20260505010304 | 76 | 178 | 3.0 | 6.0 | 0.00 | 0.03 | 0.03 | 49 | 1003.2 |
| 20260505005804 | 76 | 167 | 6.0 | 8.0 | 0.00 | 0.03 | 0.03 | 48 | 1003.2 |
| 20260505005304 | 76 | 145 | 6.0 | 8.0 | 0.00 | 0.03 | 0.03 | 48 | 1003.2 |
| 20260505004803 | 77 | 145 | 6.0 | 9.0 | 0.00 | 0.03 | 0.03 | 47 | 1003.2 |
| 20260505004304 | 77 | 145 | 5.0 | 9.0 | 0.00 | 0.03 | 0.03 | 47 | 1003.2 |
| 20260505003804 | 77 | 145 | 5.0 | 9.0 | 0.00 | 0.03 | 0.03 | 47 | 1003.2 |
| 20260505003304 | 77 | 160 | 7.0 | 9.0 | 0.00 | 0.03 | 0.03 | 47 | 1003.2 |
| 20260505002803 | 78 | 145 | 7.0 | 12.0 | 0.00 | 0.03 | 0.03 | 46 | 1002.9 |
| 20260505002304 | 78 | 152 | 7.0 | 12.0 | 0.00 | 0.03 | 0.03 | 46 | 1002.9 |
| 20260505001811 | 78 | 145 | 6.0 | 10.0 | 0.00 | 0.03 | 0.03 | 46 | 1002.9 |
| 20260505001304 | 78 | 145 | 6.0 | 7.0 | 0.00 | 0.03 | 0.03 | 46 | 1002.9 |
| 20260505000804 | 79 | 145 | 7.0 | 6.0 | 0.00 | 0.03 | 0.03 | 46 | 1003.0 |
| 20260505000304 | 79 | 145 | 8.0 | 13.0 | 0.00 | 0.03 | 0.03 | 46 | 1003.0 |
| 20260504235804 | 79 | 145 | 7.0 | 12.0 | 0.00 | 0.03 | 0.03 | 46 | 1003.0 |
| 20260504235305 | 79 | 182 | 6.0 | 12.0 | 0.00 | 0.03 | 0.03 | 46 | 1003.0 |
| 20260504234803 | 80 | 145 | 7.0 | 8.0 | 0.00 | 0.03 | 0.03 | 46 | 1002.7 |
| 20260504234304 | 80 | 160 | 8.0 | 10.0 | 0.00 | 0.03 | 0.03 | 45 | 1002.7 |
| 20260504233805 | 80 | 145 | 8.0 | 13.0 | 0.00 | 0.03 | 0.03 | 45 | 1002.7 |
| 20260504233303 | 80 | 123 | 7.0 | 13.0 | 0.00 | 0.03 | 0.03 | 45 | 1002.7 |
| 20260504232803 | 80 | 145 | 8.0 | 12.0 | 0.00 | 0.03 | 0.03 | 45 | 1003.1 |
| 20260504232303 | 80 | 156 | 8.0 | 12.0 | 0.00 | 0.03 | 0.03 | 45 | 1003.1 |
| 20260504231303 | 80 | 145 | 5.0 | 9.0 | 0.00 | 0.03 | 0.03 | 48 | 1003.1 |
| 20260504230803 | 80 | 145 | 5.0 | 6.0 | 0.00 | 0.03 | 0.03 | 50 | 1003.9 |
| 20260504230302 | 80 | 145 | 5.0 | 9.0 | 0.00 | 0.03 | 0.03 | 51 | 1003.9 |
| 20260504225804 | 80 | 145 | 3.0 | 9.0 | 0.00 | 0.03 | 0.03 | 52 | 1003.9 |
| 20260504225304 | 80 | 154 | 1.0 | 6.0 | 0.00 | 0.03 | 0.03 | 52 | 1003.9 |
| 20260504224803 | 82 | 145 | 0.0 | 0.0 | 0.00 | 0.03 | 0.03 | 52 | 1004.0 |
| 20260504224303 | 81 | 167 | 1.0 | 0.0 | 0.00 | 0.03 | 0.03 | 52 | 1004.0 |
| 20260504223803 | 80 | 190 | 1.0 | 3.0 | 0.00 | 0.03 | 0.03 | 52 | 1004.0 |
| 20260504223303 | 81 | 145 | 1.0 | 3.0 | 0.00 | 0.03 | 0.03 | 51 | 1004.0 |
| 20260504222803 | 81 | 145 | 1.0 | 5.0 | 0.00 | 0.03 | 0.03 | 50 | 1003.8 |
| 20260504222304 | 82 | 163 | 0.0 | 3.0 | 0.00 | 0.03 | 0.03 | 50 | 1003.8 |
| 20260504221803 | 83 | 235 | 1.0 | 0.0 | 0.00 | 0.03 | 0.03 | 50 | 1003.8 |
| 20260504221303 | 82 | 213 | 1.0 | 0.0 | 0.00 | 0.03 | 0.03 | 50 | 1003.8 |
| 20260504220803 | 82 | 280 | 1.0 | 6.0 | 0.00 | 0.03 | 0.03 | 49 | 1003.6 |
| 20260504220302 | 82 | 242 | 1.0 | 6.0 | 0.00 | 0.03 | 0.03 | 48 | 1003.6 |
| 20260504215803 | 82 | 33 | 3.0 | 6.0 | 0.00 | 0.03 | 0.03 | 49 | 1003.6 |
| 20260504215304 | 83 | 130 | 2.0 | 9.0 | 0.00 | 0.03 | 0.03 | 49 | 1003.6 |
| 20260504214803 | 84 | 145 | 1.0 | 9.0 | 0.00 | 0.03 | 0.03 | 48 | 1003.6 |
| 20260504214304 | 84 | 145 | 2.0 | 3.0 | 0.00 | 0.03 | 0.03 | 49 | 1003.6 |
| 20260504213804 | 82 | 303 | 5.0 | 8.0 | 0.00 | 0.03 | 0.03 | 50 | 1003.6 |
| 20260504213303 | 82 | 174 | 3.0 | 12.0 | 0.00 | 0.03 | 0.03 | 50 | 1003.6 |
| 20260504212304 | 83 | 130 | 1.0 | 5.0 | 0.00 | 0.03 | 0.03 | 52 | 1004.3 |
| 20260504211803 | 83 | 190 | 1.0 | 5.0 | 0.00 | 0.03 | 0.03 | 52 | 1004.3 |
| 20260504211303 | 82 | 180 | 1.0 | 5.0 | 0.00 | 0.03 | 0.03 | 52 | 1004.3 |
| 20260504210804 | 82 | 303 | 2.0 | 2.0 | 0.00 | 0.03 | 0.03 | 55 | 1004.3 |
| 20260504210303 | 81 | 204 | 3.0 | 8.0 | 0.00 | 0.03 | 0.03 | 54 | 1004.3 |
| 20260504205803 | 79 | 167 | 3.0 | 8.0 | 0.00 | 0.03 | 0.03 | 56 | 1004.3 |
| 20260504205304 | 79 | 190 | 4.0 | 9.0 | 0.00 | 0.03 | 0.03 | 56 | 1004.3 |
| 20260504204803 | 78 | 145 | 3.0 | 12.0 | 0.00 | 0.03 | 0.03 | 57 | 1004.8 |
| 20260504204303 | 79 | 145 | 1.0 | 12.0 | 0.00 | 0.03 | 0.03 | 56 | 1004.8 |
| 20260504203803 | 78 | 33 | 1.0 | 2.0 | 0.00 | 0.03 | 0.03 | 59 | 1004.8 |
| 20260504203303 | 78 | 242 | 1.0 | 2.0 | 0.00 | 0.03 | 0.03 | 63 | 1004.8 |
| 20260504202804 | 76 | 190 | 1.0 | 2.0 | 0.00 | 0.03 | 0.03 | 65 | 1004.9 |
| 20260504202304 | 76 | 157 | 1.0 | 9.0 | 0.00 | 0.03 | 0.03 | 66 | 1004.9 |
| 20260504201803 | 75 | 123 | 1.0 | 9.0 | 0.00 | 0.03 | 0.03 | 70 | 1004.9 |
| 20260504201303 | 73 | 233 | 1.0 | 3.0 | 0.00 | 0.03 | 0.03 | 70 | 1004.9 |
| 20260504195803 | 70 | 303 | 1.0 | 3.0 | 0.00 | 0.03 | 0.03 | 75 | 1005.4 |
| 20260504195304 | 70 | 251 | 2.0 | 6.0 | 0.00 | 0.03 | 0.03 | 75 | 1005.4 |
| 20260504194302 | 73 | 240 | 1.0 | 5.0 | 0.00 | 0.03 | 0.03 | 78 | 1005.0 |
| 20260504193803 | 71 | 303 | 0.0 | 2.0 | 0.00 | 0.03 | 0.03 | 81 | 1005.0 |
| 20260504193303 | 68 | 176 | 0.0 | 0.0 | 0.00 | 0.03 | 0.03 | 84 | 1005.0 |
| 20260504192803 | 65 | 190 | 1.0 | 2.0 | 0.03 | 0.03 | 0.03 | 85 | 1006.6 |
| 20260504192304 | 65 | 149 | 2.0 | 6.0 | 0.03 | 0.03 | 0.03 | 85 | 1006.6 |
| 20260504191803 | 65 | 213 | 1.0 | 6.0 | 0.03 | 0.03 | 0.03 | 85 | 1006.6 |
| 20260504191303 | 64 | 190 | 0.0 | 3.0 | 0.03 | 0.03 | 0.03 | 85 | 1006.6 |
| 20260504190803 | 64 | 123 | 0.0 | 0.0 | 0.03 | 0.03 | 0.03 | 83 | 1006.3 |
| 20260504190303 | 63 | 197 | 1.0 | 0.0 | 0.03 | 0.03 | 0.03 | 83 | 1006.3 |
| 20260504185803 | 63 | 167 | 1.0 | 5.0 | 0.03 | 0.03 | 0.03 | 83 | 1006.3 |
| 20260504185304 | 63 | 132 | 1.0 | 5.0 | 0.03 | 0.03 | 0.03 | 83 | 1006.3 |
| 20260504184303 | 63 | 205 | 2.0 | 5.0 | 0.03 | 0.03 | 0.03 | 83 | 1006.8 |
| 20260504183803 | 63 | 303 | 2.0 | 5.0 | 0.03 | 0.03 | 0.03 | 84 | 1006.8 |
| 20260504183303 | 64 | 75 | 1.0 | 6.0 | 0.03 | 0.03 | 0.03 | 84 | 1006.8 |
| 20260504182304 | 65 | 145 | 0.0 | 0.0 | 0.00 | 0.00 | 0.00 | 72 | 1007.6 |
| 20260504181804 | 65 | 213 | 0.0 | 0.0 | 0.00 | 0.00 | 0.00 | 71 | 1007.6 |
| 20260504181303 | 65 | 213 | 0.0 | 2.0 | 0.00 | 0.00 | 0.00 | 71 | 1007.6 |
| 20260504180803 | 65 | 347 | 0.0 | 2.0 | 0.00 | 0.00 | 0.00 | 71 | 1007.0 |
| 20260504180303 | 65 | 280 | 0.0 | 0.0 | 0.00 | 0.00 | 0.00 | 71 | 1007.0 |
| 20260504175803 | 65 | 347 | 0.0 | 2.0 | 0.00 | 0.00 | 0.00 | 69 | 1007.0 |
| 20260504175304 | 66 | 336 | 0.0 | 2.0 | 0.00 | 0.00 | 0.00 | 68 | 1007.0 |
| 20260504174303 | 65 | 152 | 0.0 | 0.0 | 0.00 | 0.00 | 0.00 | 68 | 1007.3 |
| 20260504173804 | 65 | 167 | 0.0 | 0.0 | 0.00 | 0.00 | 0.00 | 67 | 1007.3 |
| 20260504172803 | 66 | 145 | 1.0 | 0.0 | 0.00 | 0.00 | 0.00 | 65 | 1006.6 |
| 20260504172304 | 66 | 145 | 1.0 | 2.0 | 0.00 | 0.00 | 0.00 | 65 | 1006.6 |
| 20260504171804 | 66 | 123 | 0.0 | 3.0 | 0.00 | 0.00 | 0.00 | 65 | 1006.6 |
| 20260504171303 | 67 | 145 | 0.0 | 0.0 | 0.00 | 0.00 | 0.00 | 64 | 1006.6 |
| 20260504170803 | 67 | 347 | 0.0 | 0.0 | 0.00 | 0.00 | 0.00 | 64 | 1007.9 |
| 20260504170303 | 67 | 142 | 1.0 | 0.0 | 0.00 | 0.00 | 0.00 | 64 | 1007.9 |
| 20260504160303 | 67 | 206 | 0.0 | 0.0 | 0.00 | 0.00 | 0.00 | 61 | 1008.2 |